Погода в Долгоруково

Россия / Липецкая область     52°19′24″N   38°21′14″E
темп.,
°C
ветер,
м/с
пор.,
м/с
влажн.,
%
обл.,
%
осадки,
мм/ч
давл.,
гПа
погр.,
м
1 марта, пн
пн100:00−2ссв1298100 0.2 102056
03:00−5всв119894 0.3 102221
06:00−5с009790 0.1 102421
09:00−4св229792 0.2 102685
12:00−2с128844 0.0 1027294
15:00−1зюз239025 0.0 1027358
18:00−2з479452 0.0 1026403
21:00−2з599176 0.1 1026574
2 марта, вт
вт200:00−1зюз61291100 0.0 1024524
03:00−1з71393100 0.1 1022731
06:00+1зюз71492100 0.0 1018573
09:00+1з81493100 0.0 1016749
12:00+1з71297100 0.0 1014615
15:00+1з61298100 0.0 1013494
18:00+1зсз51198100 0.1 1011526
21:000сз61097100 0.4 1012568
3 марта, ср
ср300:00−2ссз4109391 0.2 1012269
03:00−2сз5129195 0.3 1014508
06:00−2сз61288100 0.1 1015785
09:00−4ссз7138567 0.1 1017879
12:00−3ссз8137926 0.0 10191108
15:00−1сз6108344 0.0 1019969
18:00−2зсз6108496 0.1 1019651
21:00−2з5108998 0.1 1020538
4 марта, чт
чт400:00−2з4990100 0.0 1019489
03:00−1з41087100 0.1 1018488
06:00−3зюз6119499 0.0 1016365
09:00−2зюз7149183 0.0 1014488
12:00+1зюз8148444 0.0 1011652
15:00+1юз8167766 0.0 1008755
18:00+1зюз7177481 0.0 1006665
21:00+1зюз7168458 0.0 1005551
5 марта, пт
пт500:00+1зюз61395100 0.3 1005472
03:00+1зсз3698100 0.9 1006224
06:00−1ссв3697100 0.4 1008245
09:00−2всв2392100 0.6 1009242
12:00−1в228699 0.0 1010338
15:00−1вюв239699 0.1 1010249
18:00−2всв5797100 1.0 1009325
21:00−2в6996100 2.8 1008391